Regional Weather Roundup
Issued by NWS Northern Indiana

Home | Current Version | Previous Version | Text Only | Print | Product List | Glossary Off
Versions: 1 2 3 4 5 6 7 8 9 10 11 12 13 14 15 16 17 18 19 20 21 22 23 24 25 26 27 28 29 30 31 32 33 34 35 36 37 38 39 40 41 42 43 44 45 46 47 48 49 50

000
ASUS43 KIWX 232210
RWRIWX

KIWX WEATHER ROUNDUP
NATIONAL WEATHER SERVICE NORTHERN INDIANA
600 PM EDT TUE AUG 23 2016

NOTE: "FAIR" INDICATES FEW OR NO CLOUDS BELOW 12,000 FEET WITH NO
SIGNIFICANT WEATHER AND/OR OBSTRUCTIONS TO VISIBILITY.

* THESE STATIONS ARE NOT UNDER NWS QUALITY CONTROL. THEY ALSO MAY NOT
  REPORT WEATHER SUCH AS PRECIPITATION OR FOG.

INZ001>027-232300-
NORTHERN INDIANA

CITY           SKY/WX    TMP DP  RH WIND       PRES   REMARKS
GARY*          MOSUNNY   81  61  50 S9        30.16S
VALPARAISO     SUNNY     79  61  53 S9        30.18S
MICHIGAN CITY* SUNNY     79  61  53 MISG      30.18S
LAPORTE*       SUNNY     80  60  51 S8        30.19S
KNOX*          SUNNY     77  34  20 S9        30.18S
SOUTH BEND     MOSUNNY   79  60  52 S12       30.19S
ELKHART*       MOSUNNY   79  59  50 S12G18    30.20S
GOSHEN         MOSUNNY   78  58  49 S12       30.20S
MONTICELLO*    MOSUNNY   79  56  45 S7        30.18S
LOGANSPORT*    MOSUNNY   79  59  50 S8        30.20S
ROCHESTER*     SUNNY     81  61  50 SW10G16   30.20S
WARSAW*        PTSUNNY   79  64  61 S5        30.21R
ANGOLA*        MOSUNNY   81  61  50 SW9       30.21F
FORT WAYNE     MOSUNNY   80  58  46 SW13      30.22S
HUNTINGTON*    PTSUNNY  N/A N/A N/A S6        30.21S
PERU/GRISSOM   SUNNY     81  61  50 SW10      30.19S
MARION*        MOSUNNY   78  59  52 S7        30.22S HAZE

$$
INZ028>050-232300-
CENTRAL INDIANA

CITY           SKY/WX    TMP DP  RH WIND       PRES   REMARKS
LAFAYETTE      SUNNY     78  62  57 S7        30.18S
KOKOMO*        MOSUNNY   79  59  50 S9        30.20S
MUNCIE*        SUNNY     80  59  48 SW9       30.22S
INDIANAPOLIS   CLOUDY    79  61  53 S12       30.20S

$$
MIZ043>046-050>051-056>058-064>065-071>073-077>080-232300-
SOUTHWEST LOWER MICHIGAN

CITY           SKY/WX    TMP DP  RH WIND       PRES   REMARKS
BATTLE CREEK   MOSUNNY   75  60  59 S12       30.20F
BENTON HARBOR  MOSUNNY   80  58  46 SE13      30.17S
COLDWATER*     MOSUNNY   78  58  50 S3        30.21S
HILLSDALE*     SUNNY     78  58  50 S8        30.22S
HOLLAND        SUNNY     78  62  57 SW7       30.18F
GRAND RAPIDS   PTSUNNY   79  58  48 S9        30.18F
KALAMAZOO      MOSUNNY   79  59  50 S10       30.19F
STURGIS*       PTSUNNY   78  59  51 S9        30.20S
THREE RIVERS*  FAIR      78  61  55 S6        30.20F

$$
OHZ001>008-015>018-024>025-232300-
NORTHWEST OHIO

CITY           SKY/WX    TMP DP  RH WIND       PRES   REMARKS
WAUSEON*       FAIR      79  59  50 SW8       30.21S
DEFIANCE       MOSUNNY   81  58  45 S8        30.21F
FINDLAY        MOSUNNY   81  58  45 S9        30.22F
TOLEDO EXPRESS SUNNY     79  59  50 S8        30.21F
TOLEDO METCALF SUNNY     81  60  48 S10       30.22F
LIMA           PTSUNNY   80  61  52 S7        30.23F

$$
AND FOR LAKE MICHIGAN COASTAL AND OPEN LAKE BUOY OBSERVATIONS

STATION/POSITION TEMP    WIND        PRES    VSBY  WAVE
                 AIR SEA DIR/SP/G                  HT/PER
                 (F)     (DEG/KT/KT) (MB)    (MI)  (FT/S)
CALUMET HARBOR    79     180/ 12/ 20 1020.5F
MICHIGAN CITY     78     170/ 12/ 15   N/A
BURNS HARBOR      79     190/ 11/ 21 1021.3F
SAINT JOSEPH      80     200/  5/ 16 1021.7S
SOUTH LAKE BUOY   75 75  160/ 16/ 19 1020.1F         3/ 4
4 MI NW BRIDGMAN  77 75  180/ 12/ 14 1021.2S         2/ 3
MICHIGAN CITY     77 74  190/ 12/ 16   N/A           2/ 2

$$
&&




USA.gov is the U.S. government's official web portal to all federal, state and local government web resources and services.